Location: Recife
(8.0585°S, 34.8848°W)
Time: 22:55:15
(UTC-03:00)

A-11 Canister half - Pass Details

Date: 17 April 2026
Orbit: 1523 x 1684 km, 47.3° (Epoch: 19 May)

Event Time Altitude Azimuth Distance (km) Brightness Sun altitude
Rises 20:20:15 0° 224° (SW) 4,732 11.9 -45.9°
Reaches altitude 10° 20:23:17 10° 225° (SW) 3,765 11.3 -46.6°
Enters shadow 20:27:50 33° 230° (SW) 2,422 10.1 -47.7°
